Temp
14 14 14 15 11 8 10 10 12 14 14 16 16 17 17 18 19 17 20 19 20 18 18 17 17 17 17 17 17 17 17 17 17 17 17 17 16 16 16 16 16 15 15 14 15 14 13 14 15
13 13 14 14 8 9 9 10 12 13 14 16 17 17 18 17 19 19 19 20 19 19 19 18 17 17 17 17 17 17 16 17 17 17 17 16 16 16 16 15 15 15 15 14 15 15 15 15 15
13 13 14 8 7 9 11 10 11 14 14 15 16 17 17 17 17 18 17 18 19 19 19 18 17 17 16 17 17 17 16 17 16 16 16 16 16 16 16 15 15 15 15 17 16 16 16 16 15
12 13 11 8 8 9 11 12 11 12 15 15 15 15 17 16 16 16 17 18 18 18 19 18 18 17 17 17 17 17 17 16 16 16 16 16 16 16 15 15 15 16 16 17 17 16 16 16 15
12 12 7 8 8 8 9 11 12 12 13 14 15 15 16 17 16 17 17 18 18 18 17 17 17 17 17 17 17 18 18 17 17 16 16 15 16 15 15 15 15 16 16 16 16 16 16 16 16
11 10 7 7 7 8 9 12 12 12 13 14 14 14 16 16 17 17 17 16 17 17 17 16 17 17 17 17 17 17 17 17 17 17 16 16 16 15 15 15 15 16 16 16 16 16 16 16 16
8 6 7 7 8 9 10 12 11 12 11 13 14 13 16 16 16 16 16 16 15 16 16 16 16 16 16 16 16 16 16 17 16 16 16 15 15 15 15 15 15 16 16 16 16 16 16 16 16
10 6 6 6 7 9 9 11 11 12 11 13 13 12 14 15 15 15 16 16 16 16 16 16 16 16 15 15 16 16 16 16 16 16 16 15 15 15 15 15 16 16 16 16 16 16 16 16 16
9 5 5 7 7 9 8 8 10 10 10 11 13 12 13 14 14 14 15 15 16 16 16 16 16 15 15 16 16 16 16 16 15 15 15 15 15 15 14 15 15 16 16 16 16 16 16 16 16
6 4 6 7 7 8 8 8 8 9 9 9 10 12 13 13 14 14 14 15 14 15 15 15 16 15 16 16 16 16 16 16 16 15 15 15 15 15 15 15 14 15 16 16 16 16 16 15 15
5 5 5 7 8 7 7 7 8 8 7 9 10 10 11 12 13 14 13 13 14 14 15 15 15 15 15 15 15 15 16 16 16 15 14 14 14 14 14 14 14 14 15 16 16 16 16 16 16
6 6 6 7 7 6 6 7 6 7 8 9 10 10 10 10 11 12 13 13 13 14 14 15 15 15 15 15 15 15 16 16 15 15 15 14 14 14 13 13 14 15 15 15 16 16 15 15 16
5 5 5 6 6 6 6 6 5 6 9 9 9 9 9 10 10 11 12 13 13 14 14 15 15 15 15 15 15 15 15 15 15 15 15 15 14 14 13 13 13 14 14 15 15 16 15 15 15
4 4 5 5 6 6 5 5 6 7 10 9 9 9 9 9 10 10 11 12 13 13 14 14 15 14 14 15 15 15 14 14 15 15 15 15 16 14 13 13 13 13 14 15 15 15 15 15 15
4 3 4 5 5 5 6 5 4 11 9 9 10 10 11 11 10 10 10 11 13 13 13 13 14 14 14 14 14 14 14 14 14 15 15 14 15 15 15 13 13 13 13 14 14 14 14 14 14
3 3 3 6 6 7 7 5 7 10 9 8 9 10 10 10 10 10 10 10 12 12 13 13 13 14 14 14 14 14 14 14 15 15 14 15 15 15 14 15 14 14 12 13 13 13 14 15 14
2 1 2 4 6 6 6 5 6 8 8 7 7 9 10 10 10 9 10 10 10 12 13 13 13 13 14 14 14 14 13 14 14 15 15 15 15 15 13 14 15 14 13 12 13 13 14 14 14
3 3 4 3 5 6 5 5 6 7 7 6 7 8 9 9 10 9 9 10 10 11 13 13 13 13 13 13 13 13 13 14 14 14 15 15 15 14 13 13 13 13 13 12 12 13 13 13 14
5 5 6 6 6 5 4 5 6 7 7 6 6 6 8 9 11 10 10 10 10 11 11 13 13 13 13 13 13 13 14 14 14 14 14 14 14 13 12 12 12 13 12 11 12 12 12 13 13
4 4 4 6 6 5 5 6 7 7 7 7 7 6 7 8 10 10 10 10 10 11 10 12 13 13 13 13 14 13 13 13 13 13 13 13 12 11 12 12 12 13 12 11 11 12 12 13 13
3 3 4 6 7 6 6 4 5 7 6 7 7 7 7 8 9 10 10 9 10 10 11 11 12 13 13 14 13 13 12 12 12 13 12 11 11 11 12 12 13 13 11 11 12 11 12 13 13
4 5 6 8 7 6 7 6 7 5 5 6 6 6 7 8 8 9 10 10 11 11 11 12 12 13 13 13 13 13 13 12 12 12 11 11 11 11 11 11 12 12 12 11 11 12 13 13 12
6 7 5 5 6 6 7 6 6 6 5 6 6 6 7 8 9 10 10 11 11 11 11 12 12 12 12 12 12 12 11 11 11 11 11 11 11 11 11 11 10 12 11 12 13 13 14 13 13
6 5 6 5 6 6 6 6 5 6 5 5 6 7 7 7 8 10 10 10 11 11 12 12 12 12 12 12 11 11 11 11 11 10 11 11 11 11 11 11 11 11 10 11 12 13 13 13 13
6 6 4 4 6 6 7 7 6 5 5 7 7 7 7 6 6 7 8 9 10 11 11 11 11 11 11 11 10 10 10 10 11 11 10 10 10 11 11 11 11 11 11 11 11 12 12 12 11
7 6 6 6 5 7 7 6 6 5 5 7 7 6 6 7 5 6 7 8 10 11 11 11 11 11 11 9 9 10 10 10 10 10 10 10 10 10 10 11 10 10 11 11 11 11 11 11 12
7 7 6 7 6 7 7 6 6 5 4 6 6 5 5 6 4 4 6 7 8 10 10 10 10 10 10 10 10 10 10 10 10 10 10 10 10 10 10 10 10 11 11 11 11 12 12 12 11
6 6 7 7 8 8 8 6 5 4 3 4 5 4 4 5 6 4 4 6 7 8 9 9 9 9 9 9 9 9 9 10 10 10 10 9 10 9 10 10 10 10 10 10 11 10 10 10 11
7 7 7 7 6 7 8 7 3 3 3 3 4 3 3 3 4 6 6 5 7 7 7 7 7 8 9 9 9 9 9 9 9 9 9 9 9 10 10 10 10 10 10 10 10 10 10 10 10
6 6 7 6 7 6 6 7 5 4 4 5 4 4 5 5 5 5 5 5 5 5 7 7 6 8 8 9 8 9 8 8 9 9 9 9 10 9 10 9 9 9 10 9 10 10 10 9 9
Height
1501 1504 1506 1508 1521 1527 1529 1523 1514 1512 1511 1510 1510 1511 1512 1511 1511 1519 1502 1501 1502 1503 1505 1508 1511 1515 1517 1519 1520 1523 1525 1527 1529 1530 1532 1534 1534 1535 1537 1538 1539 1540 1542 1542 1542 1544 1546 1546 1547
1502 1505 1507 1509 1527 1535 1529 1517 1514 1511 1510 1509 1508 1509 1510 1509 1507 1506 1505 1503 1503 1504 1506 1509 1512 1514 1517 1519 1521 1523 1525 1527 1529 1531 1532 1534 1535 1536 1538 1539 1541 1542 1542 1543 1543 1544 1546 1548 1550
1503 1505 1507 1513 1527 1527 1521 1512 1511 1510 1509 1508 1508 1508 1509 1509 1508 1507 1506 1505 1504 1504 1506 1508 1512 1515 1518 1520 1522 1523 1525 1527 1529 1531 1532 1533 1535 1537 1538 1539 1541 1543 1544 1543 1544 1545 1547 1549 1551
1504 1507 1511 1518 1521 1514 1510 1508 1508 1509 1509 1510 1510 1509 1509 1510 1508 1506 1505 1505 1506 1506 1506 1509 1511 1514 1517 1520 1521 1523 1525 1527 1530 1531 1533 1534 1535 1537 1539 1540 1541 1543 1544 1545 1545 1547 1548 1550 1552
1504 1507 1519 1522 1520 1513 1510 1508 1509 1510 1511 1510 1510 1509 1507 1507 1506 1504 1503 1506 1506 1507 1509 1511 1512 1514 1517 1519 1521 1522 1524 1526 1528 1531 1533 1534 1535 1537 1538 1540 1542 1543 1545 1546 1546 1548 1550 1551 1552
1504 1508 1523 1525 1521 1512 1507 1506 1507 1509 1510 1510 1510 1510 1508 1507 1504 1503 1504 1507 1508 1508 1509 1511 1513 1515 1518 1519 1520 1522 1523 1524 1527 1529 1532 1534 1535 1537 1538 1540 1541 1543 1545 1546 1547 1548 1550 1552 1553
1504 1511 1518 1519 1517 1513 1508 1506 1506 1506 1510 1510 1509 1509 1507 1506 1504 1503 1504 1505 1508 1509 1510 1512 1513 1515 1517 1518 1519 1521 1522 1523 1525 1527 1530 1533 1535 1537 1538 1540 1541 1543 1544 1546 1547 1548 1550 1552 1553
1504 1509 1519 1518 1516 1510 1506 1506 1507 1507 1508 1508 1508 1508 1505 1504 1504 1504 1504 1505 1507 1509 1510 1511 1512 1514 1515 1517 1518 1519 1521 1522 1524 1526 1528 1531 1534 1536 1537 1539 1540 1542 1544 1545 1547 1549 1549 1551 1553
1506 1516 1521 1513 1515 1507 1507 1507 1507 1507 1506 1506 1506 1506 1506 1504 1504 1505 1503 1504 1505 1506 1508 1510 1512 1513 1515 1516 1517 1519 1520 1521 1523 1525 1527 1530 1532 1534 1537 1539 1540 1541 1543 1545 1546 1548 1550 1551 1552
1506 1516 1513 1510 1509 1508 1507 1507 1506 1506 1505 1504 1504 1504 1504 1503 1503 1504 1504 1503 1503 1505 1506 1508 1510 1512 1513 1513 1515 1517 1518 1519 1521 1523 1526 1527 1530 1533 1535 1537 1540 1541 1542 1544 1545 1547 1549 1550 1551
1507 1511 1509 1508 1508 1507 1507 1506 1505 1504 1501 1501 1501 1500 1500 1501 1501 1500 1502 1503 1502 1502 1503 1504 1507 1510 1512 1513 1513 1516 1517 1517 1519 1521 1523 1526 1528 1531 1533 1535 1537 1540 1541 1542 1544 1546 1547 1549 1550
1509 1508 1509 1509 1508 1507 1506 1505 1502 1500 1496 1497 1495 1496 1496 1495 1496 1497 1497 1499 1499 1499 1500 1501 1503 1506 1508 1510 1512 1514 1515 1516 1517 1519 1522 1524 1527 1529 1531 1532 1534 1537 1539 1541 1542 1544 1546 1547 1549
1508 1508 1508 1508 1507 1506 1504 1501 1500 1493 1489 1490 1490 1490 1489 1489 1490 1491 1492 1493 1496 1495 1497 1498 1499 1502 1505 1508 1509 1511 1512 1514 1516 1518 1521 1523 1524 1527 1529 1530 1534 1535 1537 1539 1541 1542 1543 1545 1547
1511 1511 1508 1505 1502 1501 1500 1496 1496 1485 1483 1484 1484 1484 1483 1483 1484 1485 1485 1486 1490 1491 1492 1494 1495 1497 1501 1505 1507 1508 1509 1511 1513 1515 1518 1520 1522 1525 1527 1528 1531 1533 1535 1537 1540 1541 1542 1544 1544
1509 1509 1502 1500 1500 1499 1498 1494 1488 1478 1480 1479 1479 1478 1476 1475 1477 1477 1478 1479 1483 1486 1487 1488 1491 1493 1495 1500 1503 1504 1505 1507 1509 1511 1513 1516 1518 1521 1521 1525 1528 1530 1531 1535 1538 1539 1540 1541 1543
1511 1512 1512 1500 1500 1498 1499 1487 1480 1478 1478 1475 1474 1473 1470 1469 1469 1471 1472 1473 1476 1479 1482 1484 1486 1488 1491 1494 1497 1501 1503 1503 1505 1507 1509 1511 1513 1515 1518 1518 1522 1526 1526 1530 1532 1535 1537 1539 1540
1516 1521 1516 1506 1498 1498 1497 1486 1479 1478 1476 1471 1468 1465 1462 1461 1461 1463 1465 1467 1469 1471 1475 1477 1480 1482 1486 1489 1491 1495 1498 1498 1500 1501 1503 1505 1507 1510 1512 1515 1516 1518 1521 1523 1529 1531 1532 1536 1537
1516 1518 1512 1512 1502 1498 1497 1482 1477 1472 1471 1465 1460 1457 1455 1454 1453 1454 1458 1460 1463 1465 1468 1470 1473 1476 1480 1483 1486 1489 1490 1492 1495 1496 1498 1499 1501 1503 1506 1510 1511 1512 1515 1515 1524 1528 1529 1531 1533
1512 1510 1505 1499 1498 1497 1492 1482 1471 1463 1462 1458 1453 1449 1446 1446 1448 1448 1451 1453 1456 1457 1459 1463 1466 1470 1473 1476 1479 1481 1483 1486 1488 1490 1491 1492 1494 1497 1501 1504 1507 1510 1512 1515 1521 1525 1529 1529 1529
1511 1508 1504 1495 1491 1494 1486 1472 1460 1454 1452 1453 1449 1444 1443 1443 1443 1444 1445 1446 1447 1449 1452 1456 1460 1465 1468 1471 1474 1475 1477 1479 1482 1483 1484 1485 1487 1491 1495 1498 1502 1506 1507 1514 1520 1523 1527 1526 1527
1508 1508 1500 1496 1488 1485 1481 1471 1460 1452 1452 1450 1447 1444 1441 1439 1438 1438 1439 1437 1440 1442 1445 1450 1454 1459 1462 1466 1468 1470 1472 1474 1475 1477 1478 1480 1483 1485 1489 1493 1497 1501 1502 1506 1512 1517 1523 1521 1524
1506 1494 1494 1488 1488 1485 1478 1474 1459 1457 1453 1449 1445 1441 1438 1436 1435 1433 1433 1433 1435 1437 1441 1444 1448 1452 1457 1460 1463 1465 1467 1468 1470 1471 1474 1476 1479 1482 1485 1489 1493 1495 1499 1505 1510 1514 1516 1518 1521
1496 1491 1492 1491 1487 1485 1476 1479 1457 1456 1455 1449 1440 1437 1434 1431 1429 1428 1429 1430 1431 1433 1435 1439 1443 1447 1452 1455 1459 1462 1463 1465 1468 1470 1471 1474 1476 1478 1482 1485 1488 1491 1494 1500 1506 1509 1510 1512 1516
1491 1491 1486 1484 1480 1480 1472 1474 1466 1459 1458 1449 1439 1433 1430 1427 1424 1423 1424 1426 1427 1428 1431 1434 1439 1443 1447 1451 1455 1457 1459 1461 1463 1467 1469 1469 1471 1474 1477 1480 1484 1486 1490 1494 1501 1505 1506 1509 1510
1493 1491 1498 1497 1484 1480 1467 1465 1464 1462 1455 1443 1438 1435 1432 1429 1423 1420 1420 1421 1423 1426 1428 1433 1437 1442 1445 1449 1453 1453 1454 1456 1459 1462 1464 1466 1468 1472 1474 1473 1476 1484 1488 1491 1494 1499 1503 1504 1506
1489 1491 1489 1494 1491 1472 1466 1468 1465 1464 1454 1444 1440 1437 1432 1426 1423 1419 1417 1418 1419 1423 1426 1430 1434 1440 1443 1447 1448 1445 1446 1449 1454 1457 1461 1460 1465 1469 1473 1475 1478 1481 1485 1488 1491 1493 1495 1498 1499
1486 1484 1487 1482 1480 1473 1467 1467 1466 1465 1457 1449 1444 1440 1436 1436 1430 1420 1416 1418 1420 1421 1425 1429 1434 1439 1442 1443 1443 1442 1442 1445 1451 1452 1457 1459 1459 1466 1470 1473 1476 1479 1482 1485 1487 1489 1490 1492 1495
1488 1488 1483 1483 1475 1467 1465 1469 1474 1472 1468 1459 1454 1450 1447 1443 1433 1425 1419 1419 1423 1425 1427 1431 1435 1437 1439 1442 1440 1444 1446 1450 1453 1456 1458 1460 1463 1466 1468 1469 1472 1474 1479 1481 1482 1483 1486 1488 1489
1484 1483 1483 1481 1481 1473 1470 1473 1483 1479 1475 1468 1461 1459 1454 1448 1442 1434 1429 1427 1426 1428 1429 1432 1433 1433 1436 1439 1443 1447 1449 1451 1454 1456 1458 1461 1463 1464 1466 1466 1467 1470 1474 1475 1476 1479 1482 1482 1482
1479 1481 1481 1485 1480 1483 1481 1479 1480 1480 1476 1472 1468 1465 1461 1456 1452 1449 1445 1441 1439 1439 1438 1437 1436 1434 1437 1444 1449 1451 1452 1454 1456 1458 1460 1461 1463 1465 1466 1467 1467 1468 1469 1470 1471 1473 1474 1475 1474
Wind_Speed
11 13 11 7 4 4 2 6 1 2 3 3 6 4 3 6 4 4 10 4 3 13 21 23 25 23 21 21 19 18 17 15 13 13 12 11 11 10 11 11 14 16 15 11 11 15 15 15 14
12 14 10 4 4 2 5 3 6 3 3 10 3 4 1 5 7 9 6 6 6 10 18 22 24 22 21 20 19 18 17 15 13 12 12 11 12 12 14 12 13 15 16 12 13 15 15 15 15
13 14 5 4 3 5 5 5 4 4 7 5 3 3 2 6 8 8 7 10 8 14 17 20 22 21 20 20 19 18 17 15 14 12 11 12 12 14 14 16 14 14 13 11 15 16 16 15 13
9 5 4 4 5 5 4 3 3 3 3 8 7 3 2 6 10 10 6 10 11 15 16 19 20 20 19 18 17 17 16 16 14 13 13 12 14 15 16 17 14 9 11 14 16 16 15 14 13
10 4 4 1 4 5 3 4 1 2 3 5 7 5 7 7 13 8 4 9 12 16 16 17 19 20 19 17 16 16 16 16 16 15 15 14 15 17 18 16 11 11 13 15 16 15 13 12 11
5 3 3 3 4 5 5 11 4 1 1 4 2 7 5 9 9 2 4 6 9 11 15 18 18 19 18 17 16 16 16 16 17 17 16 15 16 18 18 16 13 13 15 16 15 15 12 10 9
6 4 4 4 3 4 4 3 2 3 1 2 2 2 6 8 14 5 6 6 10 11 14 16 18 19 19 18 17 17 17 17 18 18 18 17 18 19 19 17 15 15 17 17 16 15 13 11 9
5 4 4 4 3 5 3 3 2 0 2 3 1 4 4 8 13 11 5 8 10 11 14 17 17 20 20 20 20 19 18 19 18 19 19 19 19 18 20 18 17 16 18 18 17 16 14 12 10
5 3 3 5 6 3 3 5 2 3 6 4 5 9 8 10 10 10 5 10 14 14 16 17 18 18 20 19 19 18 17 18 19 18 19 19 21 19 21 20 17 17 19 19 18 17 15 13 11
4 3 8 2 2 2 5 0 8 5 6 5 16 17 16 17 17 13 11 7 10 17 19 20 19 18 21 20 20 19 19 19 21 20 20 21 21 21 22 21 19 19 21 21 20 18 17 15 13
2 4 2 2 5 4 6 10 2 3 6 11 8 10 14 20 23 23 16 12 10 11 19 21 21 20 21 20 20 19 18 19 20 21 21 21 23 23 22 24 23 22 23 24 23 21 19 16 14
1 3 3 4 3 8 6 9 10 18 15 29 34 31 29 28 28 29 26 18 14 14 15 20 24 22 23 22 20 18 18 18 20 20 21 23 24 25 26 26 26 25 26 27 25 23 20 18 16
1 3 8 8 18 19 16 15 13 17 32 32 31 30 28 27 27 28 30 27 19 16 16 18 21 22 22 23 22 19 18 16 14 14 15 23 24 26 28 27 27 26 26 30 28 25 22 20 18
2 8 13 12 15 11 8 9 4 14 21 24 25 28 27 26 25 25 26 30 26 20 17 19 21 22 22 22 21 20 20 20 16 17 16 17 19 26 29 29 28 29 28 30 29 26 24 21 19
6 6 7 3 2 4 2 6 8 22 16 19 24 27 25 24 24 25 26 28 30 26 20 18 20 23 24 24 22 23 25 23 20 23 23 20 22 27 32 33 32 34 31 30 29 27 25 22 21
4 3 5 2 1 3 4 8 8 16 14 20 26 33 32 30 30 27 24 26 27 30 27 21 20 24 24 26 26 26 30 28 27 28 27 28 27 29 36 35 34 39 35 33 32 29 27 25 22
5 2 2 7 2 3 3 11 7 18 25 28 35 35 35 33 30 29 22 24 26 31 32 26 24 25 25 25 27 30 35 33 30 30 29 30 30 32 38 38 38 40 43 38 33 31 29 26 23
3 4 5 6 5 2 7 24 20 32 23 26 33 36 35 34 30 28 24 23 23 28 35 29 27 25 25 25 28 29 30 31 30 31 32 34 34 35 33 43 44 43 40 36 34 31 30 28 24
3 8 12 13 10 8 12 20 21 27 19 21 30 32 35 33 21 19 21 22 24 28 34 35 30 27 28 24 25 28 30 29 30 28 31 33 32 33 31 39 47 45 38 29 30 31 30 28 23
6 8 9 11 4 3 12 21 22 19 15 18 23 25 28 27 21 19 23 27 27 32 28 33 33 30 29 29 26 26 24 25 26 26 28 34 30 33 28 36 36 31 24 29 33 30 31 29 24
5 6 6 10 13 7 9 9 5 3 5 9 10 15 18 20 23 21 19 18 27 30 29 32 33 32 31 30 26 24 24 25 23 26 20 26 27 29 31 28 23 28 35 40 33 28 31 28 24
4 7 11 12 7 4 4 7 4 5 10 6 18 23 18 19 19 20 18 15 20 23 27 30 31 32 31 27 26 26 25 24 22 19 19 23 25 28 34 33 27 17 21 32 30 27 31 28 27
7 2 6 9 13 10 7 4 5 5 7 13 19 23 22 18 19 15 14 13 17 22 27 33 32 30 28 27 25 23 23 23 21 18 17 21 22 26 32 36 27 32 25 27 34 35 35 32 31
5 7 8 4 4 3 1 4 4 8 15 16 16 17 14 12 7 12 15 16 17 20 22 28 30 29 26 24 21 19 21 24 25 24 23 22 19 22 30 33 29 26 24 28 31 33 32 32 33
2 4 4 5 1 4 2 4 3 12 19 9 5 8 13 21 17 10 12 18 17 18 21 22 24 26 23 19 19 21 25 27 28 27 24 28 25 23 18 23 29 24 22 26 25 27 28 27 28
2 1 1 3 2 5 1 3 2 13 22 16 9 14 22 32 22 12 2 5 14 16 18 21 21 20 20 16 9 17 23 21 20 26 15 27 32 25 21 18 16 19 21 23 25 23 25 26 27
2 3 1 3 3 3 3 2 2 17 19 18 23 22 24 18 24 25 15 10 2 10 14 17 17 14 10 16 14 10 12 15 10 16 14 11 13 16 18 18 16 15 18 23 25 28 27 25 28
5 1 2 1 3 3 2 1 5 13 14 15 14 19 21 14 26 30 34 21 16 11 13 12 16 21 26 19 20 18 17 18 14 11 10 7 7 5 7 13 17 19 21 22 20 20 23 27 28
2 2 4 2 1 2 3 2 4 8 8 9 14 16 15 19 29 31 34 35 33 32 31 29 30 32 28 24 18 15 14 14 11 10 7 6 5 5 6 8 10 15 17 17 22 25 27 29 33
4 4 3 2 2 1 1 3 3 6 5 9 11 11 15 19 22 25 28 29 29 31 28 27 28 31 28 18 15 15 13 13 12 10 7 3 1 2 3 5 6 8 10 12 16 20 19 21 20
Wind_Direction
164 163 148 137 70 61 245 253 266 223 158 359 319 276 252 278 198 218 337 163 190 191 186 182 184 180 184 186 187 187 186 186 188 188 184 182 174 169 157 144 134 127 138 141 128 131 130 126 123
152 152 144 105 94 99 259 248 218 233 326 323 344 353 102 282 260 281 247 211 189 192 187 184 186 185 183 186 188 190 190 191 189 187 187 181 177 171 164 166 151 154 156 157 138 137 132 125 122
151 154 133 105 137 195 208 218 224 318 4 26 19 31 358 328 327 293 254 222 207 182 186 187 189 191 188 186 191 191 192 195 195 195 188 181 182 175 174 169 168 175 171 160 145 139 133 128 124
152 139 77 108 210 260 199 162 103 14 34 32 352 331 331 32 338 298 281 248 225 192 186 190 193 194 196 199 195 196 196 198 199 196 193 192 187 181 174 171 182 173 171 155 148 144 141 134 128
147 103 71 75 259 273 252 248 67 53 308 338 344 304 307 345 344 283 282 247 206 195 195 202 201 197 198 201 201 202 203 204 203 203 200 198 195 186 185 187 189 180 164 160 155 152 150 142 135
100 100 88 221 244 277 274 254 277 120 207 332 40 322 293 342 337 310 205 222 230 218 211 207 207 203 202 203 206 210 210 208 206 207 206 206 202 195 195 192 188 182 172 168 165 162 161 155 144
118 98 188 175 216 287 258 313 208 166 162 267 312 281 281 307 3 357 201 212 241 235 224 221 214 208 208 211 211 214 213 213 210 208 207 207 207 203 200 199 193 187 180 178 176 174 171 167 158
131 90 134 224 195 255 9 348 11 180 230 197 184 241 275 329 349 355 213 218 212 230 228 222 223 212 210 215 216 216 214 210 209 210 209 208 210 210 207 205 203 194 187 184 183 181 179 176 173
140 78 181 212 165 247 36 24 340 293 269 252 247 284 281 300 317 323 306 229 227 224 227 227 225 227 227 225 225 223 219 210 206 214 211 212 212 208 211 211 212 202 194 190 187 187 187 188 189
100 128 208 215 213 254 309 152 317 315 287 277 279 264 262 272 281 300 316 300 248 230 228 228 229 230 230 234 230 227 224 220 210 210 213 212 217 214 214 215 219 214 201 196 193 191 192 197 203
102 184 208 269 266 333 303 306 292 263 269 252 257 282 271 271 268 274 278 291 285 256 232 229 230 231 234 242 232 228 229 228 218 216 212 216 219 216 218 221 221 218 211 202 197 197 200 201 207
3 259 259 286 299 323 306 298 289 257 260 277 276 279 281 281 280 273 272 267 274 274 252 240 231 230 234 230 237 231 241 238 224 222 220 214 222 217 218 223 222 220 216 207 203 202 203 205 210
76 321 313 287 291 288 281 256 259 274 274 277 282 280 279 279 277 274 268 264 260 264 257 248 237 227 230 228 229 231 235 228 230 246 243 231 220 222 225 227 228 228 224 214 209 206 205 207 213
284 282 284 286 276 274 266 270 267 262 276 286 285 284 282 277 276 273 266 260 251 252 253 242 233 227 230 232 232 230 232 229 215 219 230 240 255 232 231 230 234 240 232 221 214 211 210 211 216
323 325 321 304 311 252 247 267 229 269 287 284 291 291 284 279 278 270 262 258 248 243 250 241 225 226 228 228 230 236 220 214 235 239 244 253 252 251 241 234 237 246 233 225 218 216 216 216 221
24 32 356 317 157 293 123 268 272 288 288 282 294 286 278 277 275 274 269 250 245 240 242 244 230 227 228 228 232 233 225 238 255 251 251 254 254 250 239 238 238 247 233 226 221 218 220 222 227
19 326 333 316 329 277 228 290 264 290 283 281 281 276 274 280 275 268 262 248 239 236 234 237 237 229 224 231 231 231 234 247 251 250 254 254 251 247 239 237 241 240 240 221 223 222 221 228 230
355 349 318 282 300 308 283 276 280 276 274 270 274 274 274 274 279 268 258 248 244 234 231 232 236 235 228 234 236 236 238 241 245 250 255 253 255 247 237 233 236 238 245 221 225 225 225 229 230
285 285 285 279 264 279 265 270 277 280 277 268 265 266 269 272 273 256 249 244 239 233 232 225 229 231 231 233 235 236 239 242 249 255 258 258 254 243 237 240 240 245 239 223 237 233 233 233 231
263 269 271 280 267 217 270 280 284 289 268 265 280 273 273 272 265 258 263 251 233 228 238 226 221 226 230 234 241 243 246 247 253 257 255 254 248 237 237 230 233 229 214 215 229 240 241 237 235
229 240 269 274 295 249 285 282 311 325 307 307 327 314 289 278 270 264 274 253 229 229 228 227 226 221 225 228 234 245 246 252 252 263 256 237 242 234 228 229 235 240 222 203 216 239 245 241 240
287 235 253 282 317 288 59 291 288 331 318 310 315 315 300 288 280 267 272 249 232 231 226 226 229 225 226 228 235 235 244 246 261 266 265 243 239 240 228 228 223 206 218 220 217 235 243 246 248
245 323 267 269 268 285 256 252 268 348 322 315 308 305 307 294 283 265 264 256 240 249 234 225 225 225 224 230 227 235 237 239 247 249 248 237 239 237 234 226 217 229 217 202 226 237 239 242 248
280 304 291 242 246 253 271 203 290 352 315 311 300 313 323 348 304 259 262 263 253 240 231 225 219 216 216 218 226 232 238 235 238 242 250 248 248 238 233 224 226 223 219 212 231 232 238 243 245
169 279 315 356 295 240 210 259 293 327 321 306 335 9 34 23 354 306 275 266 240 230 218 218 211 216 212 218 233 246 241 237 241 253 251 243 230 224 223 218 219 217 216 228 237 242 245 248 252
297 216 267 282 291 293 17 309 316 338 338 23 33 31 40 21 17 39 96 252 208 205 205 206 208 199 205 215 220 243 248 236 234 240 241 236 235 216 223 224 232 230 229 232 234 239 242 248 257
100 220 181 272 234 263 307 326 229 355 352 13 22 38 39 26 14 44 84 121 143 193 170 177 185 191 175 172 156 83 156 185 170 188 185 182 188 209 228 217 221 227 232 238 242 247 249 252 259
227 329 230 215 304 298 334 31 324 346 346 357 36 20 34 32 30 42 59 110 130 139 168 161 162 154 128 117 108 104 108 122 127 125 134 138 156 195 243 248 249 247 258 232 236 245 256 258 262
184 237 211 285 252 302 324 358 348 330 349 3 32 23 24 42 51 48 56 69 79 84 89 94 103 103 105 93 90 101 95 126 139 144 149 167 188 221 243 245 227 236 244 252 252 257 259 263 274
165 209 228 186 192 301 199 4 334 304 348 12 357 23 53 58 64 68 66 67 71 79 83 80 77 80 84 94 87 92 91 98 112 121 120 110 254 249 255 259 263 259 255 253 252 255 260 265 274